| time (UTC) | temp F | wind direction | speed MPH | gust MPH | rain 1hr in | rain 24hr in | rain mn in | humidity % | barometer mb |
| 20260510201554 | 54 | 327 | 2.0 | 10.0 | 0.00 | 0.08 | 0.08 | 56 | 1028.3 |
| 20260510200055 | 54 | 313 | 6.0 | 10.0 | 0.00 | 0.08 | 0.08 | 59 | 1028.5 |
| 20260510194553 | 52 | 53 | 3.0 | 8.0 | 0.00 | 0.08 | 0.08 | 66 | 1028.5 |
| 20260510193044 | 52 | 340 | 1.0 | 8.0 | 0.00 | 0.08 | 0.08 | 67 | 1028.4 |
| 20260510191612 | 50 | 67 | 3.0 | 8.0 | 0.00 | 0.08 | 0.08 | 73 | 1028.3 |
| 20260510190100 | 49 | 342 | 2.0 | 5.0 | 0.00 | 0.08 | 0.08 | 74 | 1028.6 |
| 20260510184543 | 49 | 93 | 1.0 | 5.0 | 0.00 | 0.08 | 0.08 | 74 | 1028.7 |
| 20260510183053 | 48 | 304 | 1.0 | 4.0 | 0.00 | 0.08 | 0.08 | 79 | 1028.8 |
| 20260510181549 | 46 | 294 | 0.0 | 5.0 | 0.00 | 0.08 | 0.08 | 81 | 1028.9 |
| 20260510180056 | 45 | 148 | 0.0 | 2.0 | 0.00 | 0.08 | 0.08 | 82 | 1029.1 |
| 20260510174553 | 44 | 134 | 0.0 | 3.0 | 0.00 | 0.08 | 0.08 | 85 | 1029.1 |
| 20260510173052 | 43 | 336 | 0.0 | 4.0 | 0.00 | 0.08 | 0.08 | 88 | 1029.1 |
| 20260510171548 | 43 | 344 | 1.0 | 4.0 | 0.00 | 0.08 | 0.08 | 89 | 1028.9 |
| 20260510170104 | 43 | 297 | 2.0 | 5.0 | 0.00 | 0.08 | 0.08 | 92 | 1029.0 |
| 20260510164550 | 42 | 246 | 1.0 | 6.0 | 0.00 | 0.08 | 0.08 | 93 | 1028.9 |
| 20260510163046 | 42 | 293 | 2.0 | 6.0 | 0.00 | 0.08 | 0.08 | 93 | 1028.9 |
| 20260510161546 | 42 | 233 | 1.0 | 4.0 | 0.00 | 0.08 | 0.08 | 92 | 1028.7 |
| 20260510160101 | 42 | 317 | 1.0 | 6.0 | 0.00 | 0.08 | 0.08 | 92 | 1028.5 |
| 20260510154556 | 43 | 326 | 1.0 | 4.0 | 0.00 | 0.08 | 0.08 | 93 | 1028.3 |
| 20260510153048 | 42 | 328 | 2.0 | 5.0 | 0.00 | 0.08 | 0.08 | 95 | 1028.1 |
| 20260510151550 | 41 | 21 | 3.0 | 7.0 | 0.00 | 0.08 | 0.08 | 95 | 1028.1 |
| 20260510150052 | 41 | 316 | 1.0 | 3.0 | 0.00 | 0.08 | 0.08 | 95 | 1028.1 |
| 20260510144558 | 40 | 278 | 2.0 | 5.0 | 0.00 | 0.08 | 0.08 | 96 | 1028.1 |
| 20260510143048 | 40 | 313 | 2.0 | 4.0 | 0.00 | 0.08 | 0.08 | 96 | 1028.1 |
| 20260510141545 | 40 | 0 | 0.0 | 2.0 | 0.00 | 0.08 | 0.08 | 97 | 1028.1 |
| 20260510140045 | 39 | 83 | 0.0 | 1.0 | 0.00 | 0.08 | 0.08 | 97 | 1027.9 |
| 20260510134553 | 39 | 331 | 1.0 | 3.0 | 0.00 | 0.08 | 0.08 | 97 | 1027.9 |
| 20260510133050 | 38 | 326 | 1.0 | 3.0 | 0.00 | 0.08 | 0.08 | 97 | 1027.7 |
| 20260510131549 | 38 | 344 | 1.0 | 2.0 | 0.00 | 0.08 | 0.08 | 97 | 1027.7 |
| 20260510130054 | 38 | 326 | 0.0 | 1.0 | 0.01 | 0.08 | 0.08 | 97 | 1027.7 |
| 20260510124610 | 38 | 0 | 0.0 | 1.0 | 0.01 | 0.08 | 0.08 | 97 | 1027.5 |
| 20260510123045 | 38 | 151 | 0.0 | 1.0 | 0.01 | 0.08 | 0.08 | 97 | 1027.4 |
| 20260510121551 | 38 | 0 | 0.0 | 0.0 | 0.01 | 0.08 | 0.08 | 97 | 1027.2 |
| 20260510120051 | 38 | 0 | 0.0 | 1.0 | 0.01 | 0.07 | 0.07 | 97 | 1027.0 |
| 20260510114548 | 37 | 0 | 0.0 | 0.0 | 0.02 | 0.07 | 0.07 | 97 | 1027.1 |
| 20260510113045 | 37 | 319 | 1.0 | 2.0 | 0.02 | 0.07 | 0.07 | 97 | 1027.0 |
| 20260510111548 | 38 | 0 | 0.0 | 2.0 | 0.04 | 0.07 | 0.07 | 97 | 1027.2 |
| 20260510110051 | 38 | 292 | 1.0 | 3.0 | 0.03 | 0.06 | 0.06 | 97 | 1027.2 |
| 20260510104601 | 38 | 315 | 0.0 | 2.0 | 0.03 | 0.05 | 0.05 | 96 | 1027.0 |
| 20260510103048 | 38 | 0 | 1.0 | 3.0 | 0.02 | 0.04 | 0.04 | 96 | 1026.8 |
| 20260510101549 | 38 | 0 | 0.0 | 4.0 | 0.02 | 0.03 | 0.03 | 96 | 1026.8 |
| 20260510100048 | 38 | 279 | 0.0 | 2.0 | 0.03 | 0.03 | 0.03 | 96 | 1026.4 |
| 20260510094601 | 38 | 0 | 1.0 | 3.0 | 0.02 | 0.02 | 0.02 | 96 | 1026.4 |
| 20260510093112 | 38 | 0 | 0.0 | 2.0 | 0.02 | 0.02 | 0.02 | 95 | 1026.4 |
| 20260510091549 | 38 | 259 | 1.0 | 6.0 | 0.01 | 0.01 | 0.01 | 95 | 1026.5 |
| 20260510090049 | 38 | 271 | 1.0 | 4.0 | 0.00 | 0.00 | 0.00 | 94 | 1026.4 |
| 20260510084539 | 39 | 271 | 2.0 | 6.0 | 0.00 | 0.00 | 0.00 | 93 | 1026.4 |
| 20260510083046 | 39 | 291 | 2.0 | 5.0 | 0.00 | 0.00 | 0.00 | 92 | 1026.5 |
| 20260510081546 | 40 | 334 | 2.0 | 5.0 | 0.00 | 0.00 | 0.00 | 90 | 1026.7 |
| 20260510080045 | 40 | 273 | 3.0 | 8.0 | 0.00 | 0.00 | 0.00 | 88 | 1026.7 |
| 20260510074543 | 40 | 271 | 2.0 | 7.0 | 0.00 | 0.00 | 0.00 | 87 | 1026.7 |
| 20260510073050 | 41 | 277 | 2.0 | 8.0 | 0.00 | 0.00 | 0.00 | 85 | 1027.0 |
| 20260510071553 | 41 | 229 | 4.0 | 9.0 | 0.00 | 0.00 | 0.00 | 83 | 1027.0 |
| 20260510070050 | 42 | 271 | 4.0 | 10.0 | 0.00 | 0.00 | 0.00 | 81 | 1027.1 |
| 20260510064543 | 43 | 286 | 1.0 | 9.0 | 0.00 | 0.00 | 0.00 | 78 | 1027.1 |
| 20260510063045 | 43 | 302 | 2.0 | 14.0 | 0.00 | 0.00 | 0.00 | 77 | 1027.0 |
| 20260510061546 | 44 | 323 | 3.0 | 14.0 | 0.00 | 0.00 | 0.00 | 75 | 1026.8 |
| 20260510060048 | 45 | 288 | 5.0 | 13.0 | 0.00 | 0.00 | 0.00 | 71 | 1026.4 |
| 20260510054545 | 50 | 50 | 8.0 | 22.0 | 0.00 | 0.00 | 0.00 | 56 | 1024.8 |
| 20260510053058 | 53 | 86 | 3.0 | 10.0 | 0.00 | 0.00 | 0.00 | 36 | 1022.6 |
| 20260510051549 | 53 | 200 | 3.0 | 8.0 | 0.00 | 0.00 | 0.00 | 35 | 1022.2 |
| 20260510050045 | 54 | 272 | 2.0 | 6.0 | 0.00 | 0.00 | 0.00 | 35 | 1022.1 |
| 20260510044543 | 54 | 246 | 3.0 | 9.0 | 0.00 | 0.00 | 0.00 | 33 | 1021.9 |
| 20260510043050 | 54 | 205 | 7.0 | 12.0 | 0.00 | 0.00 | 0.00 | 36 | 1022.1 |
| 20260510041547 | 55 | 198 | 9.0 | 17.0 | 0.00 | 0.00 | 0.00 | 35 | 1022.4 |
| 20260510040049 | 55 | 190 | 13.0 | 18.0 | 0.00 | 0.00 | 0.00 | 35 | 1022.5 |
| 20260510034545 | 54 | 178 | 2.0 | 6.0 | 0.00 | 0.00 | 0.00 | 35 | 1022.5 |
| 20260510033050 | 56 | 0 | 2.0 | 9.0 | 0.00 | 0.00 | 0.00 | 33 | 1022.4 |
| 20260510031548 | 55 | 281 | 0.0 | 6.0 | 0.00 | 0.00 | 0.00 | 33 | 1022.2 |
| 20260510030049 | 56 | 148 | 1.0 | 11.0 | 0.00 | 0.00 | 0.00 | 33 | 1022.0 |
| 20260510024550 | 56 | 320 | 1.0 | 3.0 | 0.00 | 0.00 | 0.00 | 31 | 1021.9 |
| 20260510023045 | 56 | 275 | 2.0 | 4.0 | 0.00 | 0.00 | 0.00 | 32 | 1021.7 |
| 20260510021552 | 56 | 0 | 0.0 | 2.0 | 0.00 | 0.00 | 0.00 | 31 | 1021.5 |
| 20260510020054 | 57 | 299 | 0.0 | 7.0 | 0.00 | 0.00 | 0.00 | 30 | 1021.2 |
| 20260510014549 | 58 | 348 | 2.0 | 5.0 | 0.00 | 0.00 | 0.00 | 29 | 1020.9 |
| 20260510013057 | 59 | 68 | 4.0 | 12.0 | 0.00 | 0.00 | 0.00 | 28 | 1020.7 |
| 20260510011553 | 60 | 327 | 11.0 | 16.0 | 0.00 | 0.00 | 0.00 | 26 | 1020.4 |
| 20260510010051 | 63 | 333 | 5.0 | 10.0 | 0.00 | 0.00 | 0.00 | 22 | 1019.3 |
| 20260510004559 | 65 | 275 | 8.0 | 15.0 | 0.00 | 0.00 | 0.00 | 21 | 1018.7 |
| 20260510003046 | 66 | 13 | 3.0 | 16.0 | 0.00 | 0.00 | 0.00 | 14 | 1018.3 |
| 20260510001550 | 66 | 254 | 10.0 | 19.0 | 0.00 | 0.00 | 0.00 | 14 | 1018.0 |
| 20260510000057 | 67 | 205 | 11.0 | 21.0 | 0.00 | 0.00 | 0.00 | 13 | 1018.1 |
| 20260509234546 | 68 | 293 | 8.0 | 16.0 | 0.00 | 0.00 | 0.00 | 12 | 1017.8 |
| 20260509233047 | 67 | 268 | 5.0 | 17.0 | 0.00 | 0.00 | 0.00 | 14 | 1017.8 |
| 20260509231545 | 66 | 230 | 11.0 | 19.0 | 0.00 | 0.00 | 0.00 | 15 | 1017.7 |
| 20260509230044 | 66 | 233 | 10.0 | 17.0 | 0.00 | 0.00 | 0.00 | 15 | 1017.7 |
| 20260509224544 | 66 | 251 | 9.0 | 18.0 | 0.00 | 0.00 | 0.00 | 14 | 1017.7 |
| 20260509223049 | 66 | 244 | 9.0 | 23.0 | 0.00 | 0.00 | 0.00 | 14 | 1017.6 |
| 20260509221548 | 67 | 233 | 10.0 | 18.0 | 0.00 | 0.00 | 0.00 | 14 | 1017.8 |
| 20260509220048 | 67 | 273 | 8.0 | 16.0 | 0.00 | 0.00 | 0.00 | 13 | 1017.9 |
| 20260509214600 | 67 | 254 | 13.0 | 24.0 | 0.00 | 0.00 | 0.00 | 13 | 1018.0 |
| 20260509213045 | 69 | 300 | 9.0 | 21.0 | 0.00 | 0.00 | 0.00 | 13 | 1018.0 |
| 20260509211545 | 68 | 252 | 10.0 | 19.0 | 0.00 | 0.00 | 0.00 | 14 | 1018.4 |
| 20260509210045 | 69 | 284 | 10.0 | 23.0 | 0.00 | 0.00 | 0.00 | 14 | 1018.4 |
| 20260509204550 | 67 | 296 | 8.0 | 21.0 | 0.00 | 0.00 | 0.00 | 16 | 1019.0 |
| 20260509203101 | 66 | 291 | 10.0 | 20.0 | 0.00 | 0.00 | 0.00 | 18 | 1019.6 |